Back to catalog

SL-14 DEB

AlivePO
NORAD 17271·DEBRIS·🇷🇺 Russia

Launched Dec 18, 1986 from Plesetsk Cosmodrome

Loading…

Next Passes (next 24 hours)

TLE

FreshSource: Space-Track

Epoch: Sep 14, 2026, 10:20 UTC

1 17271U 86101F   26257.43095681  .00000378  00000-0  23503-3 0  9996
2 17271  82.4081 144.9822 0024877 236.8299 299.5929 14.02646114 24415

Track SL-14 DEB in real time with AllMySat

Download on the App Store